Location: Hopewell Observatory
(38.8698°N, 77.6988°W)
Time: 07:58:07
(UTC-04:00)

Amateur Radio Satellites - All Passes

Search period start: 01 July 2015 07:28
Search period end: 02 July 2015 07:28
Location: Hopewell Observatory, 38.8698°N, 77.6988°W

Satellite Date Start Highest point End Downlink Frequencies (MHz)
Time Altitude Azimuth
RS-15 01 Jul 07:29:10 07:36:36 19° 348° (NNW) 07:44:02 29.354- 29.394
O/OREOS (USA 219) 01 Jul 07:31:44 07:33:54 14° 100° (E) 07:36:17 437.305
CUSAT 1 01 Jul 07:36:17 07:40:43 19° 92° (E) 07:44:50 437.405
CUTE-I 01 Jul 07:48:51 07:54:14 75° 286° (WNW) 07:59:34 437.470
CUBESAT XI-V 01 Jul 07:50:42 07:53:57 18° 269° (W) 07:57:05 437.345
M-CUBED/EXP-1 PRIME 01 Jul 07:51:47 07:53:58 17° 64° (ENE) 07:56:17 437.505
PRISM 01 Jul 08:06:10 08:09:50 29° 263° (W) 08:13:30 437.425
BEESAT 3 01 Jul 08:06:32 08:10:10 33° 115° (ESE) 08:13:53 437.485
DANDE 01 Jul 08:11:21 08:17:52 31° 94° (E) 08:23:25 436.750
BEESAT 2 01 Jul 08:13:22 08:16:57 30° 114° (ESE) 08:20:38 435.950
Cubesat XI-IV 01 Jul 08:22:13 08:27:10 37° 290° (WNW) 08:32:02 437.490
GONETS M04 01 Jul 08:25:13 08:30:17 18° 80° (E) 08:35:52
Cosmos 2504 01 Jul 08:39:50 08:44:42 18° 295° (WNW) 08:49:12 435.465 / 435.565
CUTE 1.7 + AOD 2 01 Jul 08:40:50 08:42:08 11° 89° (E) 08:43:40 437.475
CANX-2 01 Jul 08:42:51 08:44:58 14° 90° (E) 08:47:19 2200.000
GOMX 1 01 Jul 08:49:46 08:53:21 27° 95° (E) 08:56:54 467.674
STRAND 1 01 Jul 08:52:30 08:55:17 14° 271° (W) 08:57:47 437.568
ISS 01 Jul 08:52:48 08:55:03 18° 132° (SE) 08:57:22 145.825
AUBIESAT-1 01 Jul 08:54:38 08:57:54 74° 252° (WSW) 09:01:17 437.475
BRITE-PL 01 Jul 08:54:39 08:58:58 55° 99° (E) 09:03:05 437.365/2234.400
AIST 2 01 Jul 09:06:52 09:10:31 29° 114° (ESE) 09:14:15 435.215
O/OREOS (USA 219) 01 Jul 09:08:36 09:12:56 49° 295° (WNW) 09:17:17 437.305
CUSAT 1 01 Jul 09:16:11 09:23:15 63° 280° (W) 09:28:43 437.405
HO-68 01 Jul 09:23:09 09:29:56 45° 99° (E) 09:36:44 435.675
M-CUBED/EXP-1 PRIME 01 Jul 09:26:06 09:28:45 22° 260° (W) 09:31:21 437.505
CINEMA 3 01 Jul 09:28:28 09:31:26 19° 93° (E) 09:34:34 145.822/145.860
SEEDS 01 Jul 09:33:04 09:37:01 37° 97° (E) 09:41:00 437.485
VERMONT LUNAR 01 Jul 09:36:34 09:39:33 42° 157° (SSE) 09:42:33 437.305
Oscar 11 01 Jul 09:42:15 09:44:28 14° 90° (E) 09:46:55 145.826/435.025
BEESAT 3 01 Jul 09:44:54 09:48:12 23° 312° (NW) 09:51:28 437.485
RS-15 01 Jul 09:46:22 09:54:50 23° 23° (NNE) 10:03:52 29.354- 29.394
BEESAT 2 01 Jul 09:51:38 09:55:03 24° 311° (NW) 09:58:26 435.950
DOVE 4 01 Jul 09:51:41 09:55:53 87° 97° (E) 10:00:02 437.250
DANDE 01 Jul 09:53:35 10:01:00 46° 283° (WNW) 10:06:52 436.750
AAUSAT CUBESAT 2 01 Jul 09:53:37 09:57:38 43° 98° (E) 10:01:40 437.432
FUNcube-1 01 Jul 10:02:58 10:04:51 13° 90° (E) 10:06:59 145.935
UWE-3 01 Jul 10:04:27 10:07:21 19° 93° (E) 10:10:25 435.000/436.395/437.385
ANTELSAT 01 Jul 10:05:49 10:09:02 21° 69° (ENE) 10:12:20 437.575/2403.000
CUTE 1.7 + AOD 2 01 Jul 10:14:16 10:18:28 56° 285° (WNW) 10:22:39 437.475
QB50P2 01 Jul 10:14:19 10:15:23 11° 65° (ENE) 10:16:41 145.880/145.840
POPSAT HIP 1 01 Jul 10:15:58 10:17:05 11° 65° (ENE) 10:18:27 437.405
COMPASS 1 01 Jul 10:16:17 10:20:31 83° 284° (WNW) 10:24:45 437.405
CANX-2 01 Jul 10:17:05 10:21:13 46° 286° (WNW) 10:25:18 2200.000
GONETS M04 01 Jul 10:17:19 10:26:10 86° 279° (W) 10:34:59
TIGRISAT 01 Jul 10:19:22 10:23:04 29° 71° (ENE) 10:26:46 435.000
GOMX 1 01 Jul 10:28:05 10:31:26 22° 291° (WNW) 10:34:35 467.674
ISS 01 Jul 10:28:07 10:31:14 43° 326° (NNW) 10:34:21 145.825
DELFI C3 01 Jul 10:34:59 10:38:47 38° 98° (E) 10:42:37 145.870
BRITE-PL 01 Jul 10:35:09 10:37:02 12° 296° (WNW) 10:38:40 437.365/2234.400
PHONESAT 2.4 01 Jul 10:38:22 10:41:21 28° 152° (SSE) 10:44:22 2401.200-2431.200
CUBEBUG 2 01 Jul 10:40:59 10:45:09 64° 101° (E) 10:49:23 437.445
AIST 2 01 Jul 10:45:23 10:49:04 27° 310° (NW) 10:52:43 435.215
DX 1 01 Jul 10:48:02 10:50:32 15° 91° (E) 10:53:12 434.975-435.025
QB50P1 01 Jul 10:52:39 10:56:17 29° 71° (ENE) 10:59:59 145.935-145.965
UNISAT 6 01 Jul 10:56:47 11:01:06 81° 79° (ENE) 11:05:24 437.425
ZACube-1 01 Jul 10:59:29 11:03:39 63° 101° (E) 11:07:53 437.345
50 SAT 01 Jul 11:04:21 11:06:08 13° 91° (E) 11:08:08 437.505
CINEMA 3 01 Jul 11:05:05 11:08:45 30° 288° (WNW) 11:12:24 145.822/145.860
Cosmos 2499 01 Jul 11:06:55 11:13:19 39° 89° (E) 11:19:49 435.465 / 435.565
NANOSAT C BR1 01 Jul 11:07:57 11:11:57 42° 73° (ENE) 11:15:58 145.865
SEEDS 01 Jul 11:09:40 11:12:33 18° 292° (WNW) 11:15:19 437.485
AISAT 01 Jul 11:10:12 11:12:42 15° 91° (E) 11:15:23 437.250
HO-68 01 Jul 11:11:12 11:17:31 34° 296° (WNW) 11:23:42 435.675
VERMONT LUNAR 01 Jul 11:13:18 11:16:26 68° 353° (N) 11:19:36 437.305
UKube-1 01 Jul 11:13:42 11:17:23 27° 96° (E) 11:21:06 .
DUCHIFAT 1 01 Jul 11:16:05 11:20:11 51° 74° (ENE) 11:24:19 145.980
POLYITAN 1 01 Jul 11:16:20 11:20:29 55° 74° (ENE) 11:24:39 437.675
Oscar 11 01 Jul 11:16:47 11:20:57 46° 287° (WNW) 11:25:07 145.826/435.025
ESTCUBE 1 01 Jul 11:28:45 11:31:28 16° 91° (E) 11:34:20 437.505/2401.250
AAUSAT CUBESAT 2 01 Jul 11:30:24 11:32:54 15° 293° (WNW) 11:35:16 437.432
FUNcube-1 01 Jul 11:37:28 11:41:30 47° 286° (WNW) 11:45:34 145.935
CUBEBUG 1 01 Jul 11:39:36 11:42:22 17° 92° (E) 11:45:17 437.445
UWE-3 01 Jul 11:40:13 11:44:00 33° 288° (WNW) 11:47:48 435.000/436.395/437.385
ANTELSAT 01 Jul 11:41:51 11:45:41 30° 264° (W) 11:49:28 437.575/2403.000
QB50P2 01 Jul 11:46:34 11:50:48 64° 259° (WSW) 11:55:02 145.880/145.840
POPSAT HIP 1 01 Jul 11:48:16 11:52:29 64° 259° (W) 11:56:43 437.405
HUMSAT D 01 Jul 11:48:33 11:52:42 82° 284° (WNW) 11:56:53 437.325/437.525
BUGSAT 1 01 Jul 11:49:15 11:53:30 84° 77° (ENE) 11:57:45 437.445
TIGRISAT 01 Jul 11:56:24 11:59:50 22° 266° (W) 12:03:09 435.000
RS-15 01 Jul 11:58:51 12:10:25 62° 52° (NE) 12:22:28 29.354- 29.394
VELOX 1 01 Jul 11:59:20 12:03:40 53° 100° (E) 12:07:58 145.980
ISS 01 Jul 12:07:00 12:08:19 12° 345° (NNW) 12:09:36 145.825
DELFI C3 01 Jul 12:11:03 12:13:35 16° 292° (WNW) 12:15:59 145.870
PHONESAT 2.4 01 Jul 12:15:43 12:19:11 86° 346° (NNW) 12:22:40 2401.200-2431.200
GONETS M04 01 Jul 12:19:05 12:24:35 17° 300° (WNW) 12:29:32
CUBEBUG 2 01 Jul 12:20:28 12:21:25 10° 294° (WNW) 12:22:07 437.445
DX 1 01 Jul 12:22:54 12:27:03 43° 288° (WNW) 12:31:08 434.975-435.025
QB50P1 01 Jul 12:28:48 12:32:11 22° 266° (W) 12:35:28 145.935-145.965
50 SAT 01 Jul 12:37:20 12:41:01 40° 286° (WNW) 12:44:40 437.505
ZACube-1 01 Jul 12:38:23 12:39:35 11° 294° (WNW) 12:40:32 437.345
AISAT 01 Jul 12:45:21 12:49:34 44° 287° (WNW) 12:53:44 437.250
NANOSAT C BR1 01 Jul 12:45:29 12:48:01 15° 269° (W) 12:50:23 145.865
UKube-1 01 Jul 12:49:53 12:53:26 24° 291° (WNW) 12:56:52 .
VERMONT LUNAR 01 Jul 12:50:21 12:53:31 74° 9° (N) 12:56:42 437.305
DUCHIFAT 1 01 Jul 12:54:31 12:56:22 12° 270° (W) 12:57:59 145.980
SPROUT 01 Jul 12:54:42 12:58:34 33° 96° (E) 13:02:26 437.525
POLYITAN 1 01 Jul 12:55:14 12:56:48 11° 271° (W) 12:58:06 437.675
Cosmos 2499 01 Jul 13:00:16 13:06:34 33° 288° (WNW) 13:12:46 435.465 / 435.565
ESTCUBE 1 01 Jul 13:04:16 13:08:37 45° 287° (WNW) 13:12:55 437.505/2401.250
CUBEBUG 1 01 Jul 13:14:51 13:18:56 39° 288° (WNW) 13:22:57 437.445
Gurwin Techsat 1B 01 Jul 13:17:07 13:18:57 12° 61° (ENE) 13:21:04 435.225
Oscar 19 01 Jul 13:36:40 13:41:44 63° 74° (ENE) 13:46:49 437.125/150
VELOX 1 01 Jul 13:37:25 13:39:49 14° 295° (WNW) 13:42:01 145.980
ITAMSAT 1 01 Jul 13:41:54 13:45:34 20° 65° (ENE) 13:49:24 435.822/435.867
TISAT 1 01 Jul 13:50:23 13:54:35 84° 285° (WNW) 13:58:45 437.305
PHONESAT 2.4 01 Jul 13:53:53 13:57:20 66° 4° (N) 14:00:49 2401.200-2431.200
YUBILEINY 01 Jul 13:58:29 14:04:44 22° 64° (ENE) 14:11:22 435.215
RS-15 01 Jul 14:11:53 14:22:33 39° 252° (WSW) 14:33:13 29.354- 29.394
AO-7 01 Jul 14:12:03 14:16:18 16° 51° (NE) 14:20:59 29.400- 29.500
BEESAT 01 Jul 14:13:10 14:17:06 26° 94° (E) 14:21:06 436.000
Cosmos 2491 01 Jul 14:21:04 14:24:23 13° 78° (ENE) 14:28:26 435.465 / 435.565
VERMONT LUNAR 01 Jul 14:27:25 14:30:21 34° 205° (SSW) 14:33:18 437.305
SWISSCUBE 01 Jul 14:27:48 14:32:18 39° 98° (E) 14:36:49 437.505
SPROUT 01 Jul 14:31:17 14:34:28 20° 292° (WNW) 14:37:31 437.525
ITUPSAT 1 01 Jul 14:31:22 14:35:52 39° 98° (E) 14:40:22 437.325
HORYU 2 01 Jul 14:48:34 14:48:34 10° 63° (ENE) 14:48:51 437.375
JAS-2 01 Jul 14:52:26 14:56:17 22° 66° (ENE) 15:00:21 435.910
Gurwin Techsat 1B 01 Jul 14:52:57 14:58:15 87° 254° (WSW) 15:03:38 435.225
Oscar 19 01 Jul 15:18:47 15:21:36 14° 271° (W) 15:24:09 437.125/150
ITAMSAT 1 01 Jul 15:19:42 15:24:44 49° 260° (W) 15:29:49 435.822/435.867
ISS 01 Jul 15:20:44 15:23:17 21° 25° (NNE) 15:25:51 145.825
PHONESAT 2.4 01 Jul 15:31:57 15:35:23 56° 201° (SSW) 15:38:49 2401.200-2431.200
STARS 01 Jul 15:47:56 15:51:31 25° 95° (E) 15:55:10 437.465
BEESAT 01 Jul 15:50:42 15:54:58 31° 290° (WNW) 15:59:09 436.000
YUBILEINY 01 Jul 15:53:53 16:02:38 76° 265° (W) 16:11:22 435.215
AO-7 01 Jul 15:59:33 16:07:49 72° 69° (ENE) 16:16:10 29.400- 29.500
SWISSCUBE 01 Jul 16:06:17 16:09:55 21° 293° (WNW) 16:13:26 437.505
PCSat 01 Jul 16:09:35 16:14:11 30° 110° (ESE) 16:18:55 145.827
ITUPSAT 1 01 Jul 16:09:50 16:13:32 22° 293° (WNW) 16:17:06 437.325
Cosmos 2491 01 Jul 16:11:12 16:20:00 78° 95° (E) 16:28:51 435.465 / 435.565
HORYU 2 01 Jul 16:20:14 16:24:39 77° 258° (WSW) 16:29:05 437.375
KKS-1 01 Jul 16:23:04 16:27:30 76° 284° (WNW) 16:31:54 437.445
AIST 1 01 Jul 16:24:52 16:29:10 61° 95° (E) 16:33:33
BEESAT 3 01 Jul 16:26:45 16:29:18 16° 45° (NE) 16:31:56 437.485
BEESAT 2 01 Jul 16:34:09 16:36:37 16° 44° (NE) 16:39:10 435.950
JAS-2 01 Jul 16:36:23 16:41:14 39° 263° (W) 16:46:09 435.910
Cosmos 2504 01 Jul 16:36:41 16:42:30 24° 68° (ENE) 16:48:52 435.465 / 435.565
ISS 01 Jul 16:56:43 16:59:53 51° 223° (SW) 17:03:01 145.825
PHONESAT 2.4 01 Jul 17:11:13 17:13:00 13° 214° (SW) 17:14:40 2401.200-2431.200
STARS 01 Jul 17:24:13 17:27:57 27° 290° (WNW) 17:31:34 437.465
SO-50 01 Jul 17:24:41 17:28:45 31° 113° (ESE) 17:33:00 436.795
AIST 2 01 Jul 17:30:10 17:32:44 16° 44° (NE) 17:35:24 435.215
CUTE-I 01 Jul 17:31:25 17:35:08 20° 65° (ENE) 17:39:02 437.470
O/OREOS (USA 219) 01 Jul 17:40:55 17:44:32 23° 59° (ENE) 17:48:13 437.305
MOZHAYETS 4 01 Jul 17:52:19 17:57:00 85° 283° (WNW) 18:01:39
PCSat 01 Jul 17:52:31 17:57:31 36° 306° (NW) 18:02:30 145.827
YUBILEINY 01 Jul 17:54:30 17:58:11 13° 282° (WNW) 18:01:10 435.215
AO-7 01 Jul 17:54:55 18:01:24 23° 268° (W) 18:07:35 29.400- 29.500
Cubesat XI-IV 01 Jul 18:03:11 18:08:04 39° 70° (ENE) 18:13:04 437.490
BEESAT 3 01 Jul 18:03:39 18:07:35 50° 243° (WSW) 18:11:25 437.485
AIST 1 01 Jul 18:06:04 18:07:22 11° 293° (WNW) 18:08:24
BEESAT 2 01 Jul 18:11:02 18:15:02 54° 243° (WSW) 18:18:56 435.950
Cosmos 2491 01 Jul 18:11:24 18:18:00 22° 296° (WNW) 18:24:14 435.465 / 435.565
CUBESAT XI-V 01 Jul 18:12:00 18:13:33 12° 88° (E) 18:15:23 437.345
Cosmos 2504 01 Jul 18:28:55 18:36:30 65° 266° (W) 18:44:37 435.465 / 435.565
SO-50 01 Jul 19:04:59 19:09:15 32° 311° (NW) 19:13:36 436.795
AIST 2 01 Jul 19:07:35 19:11:42 56° 242° (WSW) 19:15:43 435.215
CUTE-I 01 Jul 19:09:38 19:14:51 52° 260° (W) 19:20:06 437.470
O/OREOS (USA 219) 01 Jul 19:19:58 19:24:01 32° 255° (WSW) 19:28:00 437.305
STRAND 1 01 Jul 19:22:59 19:27:02 24° 93° (E) 19:31:11 437.568
JUGNU 01 Jul 19:36:28 19:38:15 11° 178° (S) 19:40:03 437.505
Cubesat XI-IV 01 Jul 19:43:52 19:48:19 25° 266° (W) 19:52:40 437.490
CUBESAT XI-V 01 Jul 19:46:52 19:51:32 64° 284° (WNW) 19:56:07 437.345
PRISM 01 Jul 19:49:11 19:53:08 39° 98° (E) 19:57:04 437.425
HO-68 01 Jul 19:50:59 19:56:56 30° 63° (ENE) 20:03:01 435.675
GOMX 1 01 Jul 19:55:54 20:00:28 32° 71° (ENE) 20:04:52 467.674
CUSAT 1 01 Jul 19:56:46 19:59:29 82° 80° (E) 20:02:04 437.405
BRITE-PL 01 Jul 20:02:50 20:08:19 61° 75° (ENE) 20:13:33 437.365/2234.400
SEEDS 01 Jul 20:24:25 20:27:39 23° 70° (ENE) 20:31:00 437.485
CINEMA 3 01 Jul 20:29:27 20:32:28 18° 69° (ENE) 20:35:32 145.822/145.860
GONETS M04 01 Jul 20:29:28 20:37:40 45° 74° (ENE) 20:45:56
Oscar 11 01 Jul 20:38:23 20:38:31 10° 64° (ENE) 20:38:55 145.826/435.025
DANDE 01 Jul 20:38:26 20:41:08 33° 266° (W) 20:43:32 436.750
AAUSAT CUBESAT 2 01 Jul 20:43:33 20:46:54 25° 70° (ENE) 20:50:21 437.432
DOVE 4 01 Jul 20:55:15 21:00:15 77° 76° (ENE) 21:04:59 437.250
Cosmos 2499 01 Jul 21:00:07 21:03:06 13° 61° (ENE) 21:06:44 435.465 / 435.565
UWE-3 01 Jul 21:01:35 21:03:43 14° 67° (ENE) 21:06:02 435.000/436.395/437.385
STRAND 1 01 Jul 21:01:37 21:06:23 38° 290° (WNW) 21:11:04 437.568
CUTE 1.7 + AOD 2 01 Jul 21:05:30 21:09:42 87° 82° (E) 21:13:57 437.475
COMPASS 1 01 Jul 21:06:03 21:10:05 54° 75° (ENE) 21:14:10 437.405
M-CUBED/EXP-1 PRIME 01 Jul 21:06:38 21:09:54 22° 100° (E) 21:13:26 437.505
CANX-2 01 Jul 21:08:22 21:12:33 78° 258° (WSW) 21:16:47 2200.000
DELFI C3 01 Jul 21:21:39 21:24:34 20° 69° (ENE) 21:27:37 145.870
PRISM 01 Jul 21:25:32 21:28:18 17° 293° (WNW) 21:30:54 437.425
GOMX 1 01 Jul 21:33:58 21:38:33 29° 265° (W) 21:42:51 467.674
HO-68 01 Jul 21:37:27 21:44:23 51° 260° (W) 21:51:19 435.675
CUBEBUG 2 01 Jul 21:38:01 21:42:10 45° 74° (ENE) 21:46:15 437.445
DX 1 01 Jul 21:43:30 21:45:20 13° 65° (ENE) 21:47:23 434.975-435.025
BRITE-PL 01 Jul 21:43:36 21:47:12 17° 270° (W) 21:50:27 437.365/2234.400
ZACube-1 01 Jul 21:54:20 21:58:19 41° 73° (ENE) 22:02:17 437.345
SEEDS 01 Jul 21:59:46 22:03:21 27° 265° (W) 22:06:53 437.485
CINEMA 3 01 Jul 22:05:05 22:09:27 40° 262° (W) 22:13:37 145.822/145.860
AISAT 01 Jul 22:07:40 22:09:41 13° 65° (ENE) 22:11:55 437.250
UKube-1 01 Jul 22:07:45 22:10:58 21° 68° (ENE) 22:14:18 .
AUBIESAT-1 01 Jul 22:09:23 22:13:33 83° 288° (WNW) 22:18:01 437.475
Oscar 11 01 Jul 22:09:54 22:14:11 72° 259° (WSW) 22:18:29 145.826/435.025
SRMSAT 01 Jul 22:10:44 22:12:26 11° 182° (S) 22:14:07 437.500
AAUSAT CUBESAT 2 01 Jul 22:19:05 22:22:28 24° 266° (W) 22:25:48 437.432
GONETS M04 01 Jul 22:26:36 22:34:24 37° 273° (W) 22:42:00
ESTCUBE 1 01 Jul 22:28:06 22:30:18 14° 65° (ENE) 22:32:41 437.505/2401.250
FUNcube-1 01 Jul 22:31:39 22:35:53 72° 258° (WSW) 22:40:04 145.935
CUBEBUG 1 01 Jul 22:35:30 22:37:35 14° 66° (ENE) 22:39:54 437.445
UWE-3 01 Jul 22:35:46 22:39:57 47° 261° (W) 22:44:02 435.000/436.395/437.385
DOVE 4 01 Jul 22:37:38 22:38:32 10° 272° (W) 22:39:04 437.250
HUMSAT D 01 Jul 22:38:55 22:42:57 57° 75° (ENE) 22:46:58 437.325/437.525
M-CUBED/EXP-1 PRIME 01 Jul 22:41:01 22:44:42 32° 293° (WNW) 22:48:37 437.505
COMPASS 1 01 Jul 22:44:56 22:46:10 11° 271° (W) 22:47:09 437.405
Cosmos 2499 01 Jul 22:49:55 22:57:42 75° 81° (E) 23:06:07 435.465 / 435.565
UNISAT 6 01 Jul 22:50:41 22:53:37 18° 92° (E) 22:56:45 437.425
VELOX 1 01 Jul 22:55:35 22:59:46 41° 72° (ENE) 23:03:59 145.980
DELFI C3 01 Jul 22:56:03 22:59:31 28° 264° (W) 23:02:59 145.870
CUBEBUG 2 01 Jul 23:16:44 23:19:08 14° 269° (W) 23:21:18 437.445
DX 1 01 Jul 23:16:48 23:21:08 59° 259° (WSW) 23:25:28 434.975-435.025
50 SAT 01 Jul 23:19:46 23:23:36 89° 91° (E) 23:27:27 437.505
ZACube-1 01 Jul 23:32:24 23:34:55 15° 269° (W) 23:37:14 437.345
QB50P2 01 Jul 23:33:46 23:37:00 22° 94° (E) 23:40:20 145.880/145.840
ANTELSAT 01 Jul 23:34:05 23:38:23 56° 100° (E) 23:42:47 437.575/2403.000
BUGSAT 1 01 Jul 23:34:42 23:36:24 13° 90° (E) 23:38:17 437.445
POPSAT HIP 1 01 Jul 23:35:19 23:38:32 22° 94° (E) 23:41:51 437.405
AISAT 01 Jul 23:41:24 23:45:49 59° 259° (W) 23:50:15 437.250
UKube-1 01 Jul 23:43:00 23:46:56 32° 263° (W) 23:50:50 .
TIGRISAT 01 Jul 23:47:50 23:52:11 78° 102° (ESE) 23:56:37 435.000
SPROUT 01 Jul 23:48:04 23:51:24 23° 69° (ENE) 23:54:51 437.525
ESTCUBE 1 02 Jul 00:02:16 00:06:43 57° 260° (W) 00:11:13 437.505/2401.250
CUBEBUG 1 02 Jul 00:09:10 00:13:31 56° 260° (W) 00:17:55 437.445
QB50P1 02 Jul 00:14:00 00:18:11 64° 101° (E) 00:22:20 145.935-145.965
HUMSAT D 02 Jul 00:18:32 00:19:07 10° 271° (W) 00:19:26 437.325/437.525
UNISAT 6 02 Jul 00:26:31 00:30:34 37° 288° (WNW) 00:34:38 437.425
NANOSAT C BR1 02 Jul 00:29:26 00:33:39 85° 283° (WNW) 00:37:50 145.865
VELOX 1 02 Jul 00:33:29 00:36:32 17° 268° (W) 00:39:24 145.980
DUCHIFAT 1 02 Jul 00:37:30 00:41:41 70° 284° (WNW) 00:45:49 145.980
POLYITAN 1 02 Jul 00:38:37 00:42:47 64° 285° (WNW) 00:46:56 437.675
TISAT 1 02 Jul 00:40:56 00:45:07 60° 75° (ENE) 00:49:19 437.305
Cosmos 2499 02 Jul 00:44:47 00:50:17 20° 276° (W) 00:55:36 435.465 / 435.565
PCSat 02 Jul 00:58:34 01:02:37 21° 47° (NE) 01:06:46 145.827
BUGSAT 1 02 Jul 01:08:17 01:12:11 45° 287° (WNW) 01:16:01 437.445
QB50P2 02 Jul 01:09:16 01:12:56 28° 289° (WNW) 01:16:30 145.880/145.840
POPSAT HIP 1 02 Jul 01:10:48 01:14:26 28° 289° (WNW) 01:18:00 437.405
ANTELSAT 02 Jul 01:12:38 01:14:47 13° 294° (WNW) 01:16:45 437.575/2403.000
BEESAT 02 Jul 01:18:37 01:22:30 26° 69° (ENE) 01:26:31 436.000
SPROUT 02 Jul 01:23:34 01:27:22 29° 264° (W) 01:31:07 437.525
SWISSCUBE 02 Jul 01:33:07 01:37:32 40° 71° (ENE) 01:42:02 437.505
ITUPSAT 1 02 Jul 01:36:58 01:41:22 39° 71° (ENE) 01:45:52 437.325
Oscar 19 02 Jul 01:50:06 01:54:10 24° 94° (E) 01:58:21 437.125/150
QB50P1 02 Jul 01:52:24 01:53:34 11° 295° (WNW) 01:54:29 145.935-145.965
SO-50 02 Jul 01:57:10 02:01:09 24° 46° (NE) 02:05:09 436.795
TISAT 1 02 Jul 02:20:22 02:21:21 10° 271° (W) 02:22:02 437.305
RS-15 02 Jul 02:21:44 02:31:29 42° 109° (ESE) 02:41:39 29.354- 29.394
Cosmos 2491 02 Jul 02:23:41 02:31:29 36° 71° (ENE) 02:39:23 435.465 / 435.565
AIST 1 02 Jul 02:34:54 02:37:04 14° 69° (ENE) 02:39:26
PCSat 02 Jul 02:41:08 02:46:28 58° 246° (WSW) 02:51:46 145.827
STARS 02 Jul 02:44:07 02:47:16 20° 68° (ENE) 02:50:33 437.465
BEESAT 02 Jul 02:56:01 03:00:16 31° 264° (W) 03:04:28 436.000
YUBILEINY 02 Jul 02:58:43 03:05:15 26° 84° (E) 03:12:07 435.215
Gurwin Techsat 1B 02 Jul 03:10:38 03:15:39 42° 98° (E) 03:20:40 435.225
SWISSCUBE 02 Jul 03:12:01 03:15:35 20° 267° (W) 03:19:02 437.505
ITUPSAT 1 02 Jul 03:15:50 03:19:26 20° 267° (W) 03:22:56 437.325
KKS-1 02 Jul 03:19:40 03:24:08 83° 76° (ENE) 03:28:36 437.445
Oscar 19 02 Jul 03:28:56 03:33:39 37° 290° (WNW) 03:38:18 437.125/150
ITAMSAT 1 02 Jul 03:33:36 03:38:49 66° 101° (E) 03:44:00 435.822/435.867
SO-50 02 Jul 03:37:12 03:41:57 47° 244° (WSW) 03:46:35 436.795
JAS-2 02 Jul 03:44:37 03:50:10 29° 95° (E) 03:56:24 435.910
AO-7 02 Jul 04:03:41 04:10:02 25° 92° (E) 04:16:40 29.400- 29.500
AIST 1 02 Jul 04:10:53 04:15:06 46° 267° (W) 04:19:13
HORYU 2 02 Jul 04:13:18 04:16:44 22° 94° (E) 04:20:17 437.375
STARS 02 Jul 04:19:28 04:23:31 35° 263° (W) 04:27:33 437.465
Cosmos 2491 02 Jul 04:20:19 04:28:36 47° 271° (W) 04:36:42 435.465 / 435.565
RS-15 02 Jul 04:32:56 04:43:36 55° 311° (NW) 04:54:37 29.354- 29.394
Gurwin Techsat 1B 02 Jul 04:51:10 04:55:25 24° 293° (WNW) 04:59:31 435.225
MOZHAYETS 4 02 Jul 04:52:46 04:57:19 78° 76° (ENE) 05:01:56
YUBILEINY 02 Jul 04:52:53 05:01:29 64° 281° (W) 05:10:07 435.215
ITAMSAT 1 02 Jul 05:14:44 05:17:49 15° 297° (WNW) 05:20:40 435.822/435.867
CUBESAT XI-V 02 Jul 05:15:10 05:16:25 11° 64° (ENE) 05:17:56 437.345
Cosmos 2504 02 Jul 05:16:22 05:20:34 17° 83° (E) 05:25:07 435.465 / 435.565
JAS-2 02 Jul 05:29:09 05:35:24 50° 288° (WNW) 05:42:19 435.910
HORYU 2 02 Jul 05:49:28 05:53:27 32° 289° (WNW) 05:57:22 437.375
AO-7 02 Jul 05:55:14 06:03:33 69° 291° (WNW) 06:11:48 29.400- 29.500
Cubesat XI-IV 02 Jul 06:22:46 06:26:01 17° 90° (E) 06:29:31 437.490
STRAND 1 02 Jul 06:37:34 06:42:00 31° 69° (ENE) 06:46:32 437.568
PRISM 02 Jul 06:38:20 06:41:42 25° 69° (ENE) 06:45:11 437.425
CUBESAT XI-V 02 Jul 06:48:35 06:53:17 77° 259° (W) 06:58:02 437.345
RS-15 02 Jul 06:51:28 06:59:28 21° 341° (NNW) 07:07:27 29.354- 29.394
YUBILEINY 02 Jul 06:58:12 07:00:36 11° 305° (NW) 07:02:16 435.215
Cosmos 2504 02 Jul 07:06:02 07:13:17 72° 279° (W) 07:20:26 435.465 / 435.565
CUSAT 1 02 Jul 07:20:00 07:23:25 15° 92° (E) 07:26:48 437.405
